Home   Weather   Fairfield Terrace   Past weeks
Flag for USA

Past Weather in Fairfield Terrace, South Carolina, USA — Yesterday and Last 2 Weeks

Now
49 °F

Partly sunny.


Feels Like: 45 °F
Forecast: 47 / 40 °F
Wind: 8 mph from East

Location: Columbia Owens Downtown Airport

Current Time: Dec 12, 2019 at 7:11:26 pm

Latest Report: Dec 12, 2019 at 4:53 pm


Visibility: 10 mi

Pressure: 30.47 "Hg

Humidity: 39%

Dew Point: 25 °F

Location of Fairfield TerraceLocation

Past Weather in Fairfield Terrace — Graph

°F

Fairfield Terrace Temperature Yesterday

Maximum temperature yesterday: 55 °F (at 12:01 am)
Minimum temperature yesterday: 36 °F (at 11:53 pm)
Average temperature yesterday: 49 °F

High & Low Weather Summary for the Past Weeks

 TemperatureHumidityPressure
High79 °F (Dec 10, 1:53 pm)93% (Dec 1, 5:53 am)30.63 "Hg (Dec 1, 5:53 am)
Low32 °F (Dec 3, 6:53 am)21% (Nov 28, 2:53 pm)29.56 "Hg (Dec 1, 3:53 pm)
Average53 °F64%30.09 "Hg
* Reported Nov 27 4:53 pm — Dec 12 4:53 pm, Fairfield Terrace. Weather by CustomWeather, © 2019

Note: Actual official high and low records may vary slightly from our data, if they occured in-between our weather recording intervals... More about our weather records

Fairfield Terrace Weather History for the Previous 24 Hours

Scroll right to see more
 ConditionsComfort  
Time TempWeatherWind HumidityBarometerVisibility
4:53 pm
Thu, Dec 12
49 °FPartly sunny.8 mph39%30.47 "Hg10 mi
2:54 pm51 °FCool.5 mph36%30.49 "Hg10 mi
1:53 pm52 °FSunny.8 mph35%30.52 "Hg10 mi
12:53 pm51 °FSunny.8 mph38%30.55 "Hg10 mi
11:53 am47 °FSunny.5 mph42%30.59 "Hg10 mi
10:53 am45 °FSunny.10 mph45%30.63 "Hg10 mi
9:53 am42 °FSunny.6 mph51%30.63 "Hg10 mi
8:53 am39 °FSunny.7 mph57%30.62 "Hg10 mi
7:53 am35 °FSunny.7 mph67%30.60 "Hg10 mi
5:53 am32 °FClear.No wind88%30.58 "Hg10 mi
4:53 am33 °FClear.No wind88%30.57 "Hg10 mi
2:53 am33 °FClear.No wind88%30.55 "Hg10 mi
1:53 am34 °FClear.No wind92%30.54 "Hg9 mi
12:53 am35 °FClear.No wind88%30.53 "Hg10 mi
11:53 pm
Wed, Dec 11
36 °FClear.No wind89%30.53 "Hg10 mi
10:53 pm37 °FClear.No wind89%30.54 "Hg10 mi
9:53 pm38 °FClear.No wind90%30.53 "Hg10 mi
8:53 pm41 °FClear.No wind82%30.53 "Hg10 mi
7:53 pm44 °FClear.3 mph76%30.51 "Hg10 mi
Weather by CustomWeather, © 2019

See weather overview

Advertising